Hourly Weather Lukaszowice

Today, 17 May, Monday

Time Temperature Precipitation Wind Pressure Humidity
00:00 +9°C° 0.1 mm 2 mps 741 mmHg 88%
01:00 +8°C° 0 mm 2 mps 741 mmHg 89%
02:00 +8°C° 0.1 mm 2 mps 740 mmHg 90%
03:00 +8°C° 0.1 mm 2 mps 740 mmHg 91%
04:00 +8°C° 0.1 mm 2 mps 740 mmHg 92%
05:00 +9°C° 0 mm 2 mps 740 mmHg 88%
06:00 +12°C° 0 mm 2 mps 741 mmHg 85%
07:00 +13°C° 0 mm 2 mps 741 mmHg 82%
08:00 +14°C° 0.2 mm 2 mps 741 mmHg 79%
09:00 +15°C° 0.2 mm 2 mps 741 mmHg 76%
10:00 +16°C° 0.2 mm 2 mps 741 mmHg 73%
11:00 +16°C° 0.6 mm 2 mps 741 mmHg 73%
12:00 +16°C° 0.6 mm 2 mps 741 mmHg 74%
13:00 +16°C° 0.6 mm 2 mps 741 mmHg 75%
14:00 +14°C° 0.7 mm 3 mps 741 mmHg 80%
15:00 +13°C° 0.7 mm 3 mps 741 mmHg 84%
16:00 +12°C° 0.7 mm 4 mps 742 mmHg 89%
17:00 +12°C° 0.3 mm 3 mps 742 mmHg 89%
18:00 +12°C° 0.3 mm 3 mps 742 mmHg 88%
19:00 +13°C° 0.3 mm 2 mps 742 mmHg 88%
20:00 +11°C° 0.1 mm 3 mps 742 mmHg 88%
21:00 +11°C° 0.1 mm 4 mps 743 mmHg 89%
22:00 +10°C° 0.1 mm 4 mps 743 mmHg 90%
23:00 +9°C° 0 mm 5 mps 743 mmHg 90%

Tomorrow, 18 May, Tuesday

Time Temperature Precipitation Wind Pressure Humidity
00:00 +9°C° 0 mm 5 mps 743 mmHg 91%
01:00 +9°C° 0 mm 5 mps 743 mmHg 91%
02:00 +8°C° 0 mm 5 mps 744 mmHg 90%
03:00 +8°C° 0 mm 5 mps 744 mmHg 90%
04:00 +8°C° 0 mm 5 mps 744 mmHg 90%
05:00 +8°C° 0 mm 5 mps 744 mmHg 88%
06:00 +9°C° 0 mm 5 mps 745 mmHg 86%
07:00 +10°C° 0 mm 5 mps 745 mmHg 85%
08:00 +10°C° 0.1 mm 5 mps 745 mmHg 83%
09:00 +11°C° 0.1 mm 6 mps 745 mmHg 82%
10:00 +11°C° 0.1 mm 6 mps 745 mmHg 81%
11:00 +13°C° 0.3 mm 6 mps 745 mmHg 78%
12:00 +14°C° 0.3 mm 6 mps 746 mmHg 75%
13:00 +14°C° 0.3 mm 6 mps 746 mmHg 71%
14:00 +15°C° 0.1 mm 6 mps 745 mmHg 71%
15:00 +15°C° 0.1 mm 5 mps 745 mmHg 70%
16:00 +15°C° 0.1 mm 5 mps 745 mmHg 69%
17:00 +14°C° 0.1 mm 5 mps 746 mmHg 73%
18:00 +13°C° 0.1 mm 4 mps 746 mmHg 77%
19:00 +12°C° 0.1 mm 4 mps 746 mmHg 81%
20:00 +11°C° 0 mm 4 mps 746 mmHg 85%
21:00 +10°C° 0 mm 3 mps 747 mmHg 89%
22:00 +9°C° 0 mm 3 mps 747 mmHg 92%
23:00 +8°C° 0 mm 3 mps 747 mmHg 92%

Day after tomorrow, 19 May, Wednesday

Time Temperature Precipitation Wind Pressure Humidity
00:00 +8°C° 0 mm 3 mps 747 mmHg 92%
01:00 +8°C° 0 mm 3 mps 748 mmHg 93%
02:00 +8°C° 0 mm 3 mps 748 mmHg 92%
03:00 +7°C° 0 mm 3 mps 748 mmHg 92%
04:00 +7°C° 0 mm 3 mps 748 mmHg 91%
05:00 +7°C° 0 mm 4 mps 748 mmHg 87%
06:00 +8°C° 0 mm 4 mps 748 mmHg 83%
07:00 +10°C° 0 mm 4 mps 748 mmHg 79%
08:00 +10°C° 0.1 mm 5 mps 748 mmHg 78%
09:00 +10°C° 0.1 mm 5 mps 749 mmHg 77%
10:00 +12°C° 0.1 mm 5 mps 749 mmHg 76%
11:00 +10°C° 0.2 mm 5 mps 749 mmHg 79%
12:00 +10°C° 0.2 mm 6 mps 749 mmHg 82%
13:00 +10°C° 0.2 mm 6 mps 749 mmHg 86%
14:00 +10°C° 0.2 mm 6 mps 749 mmHg 84%
15:00 +10°C° 0.2 mm 6 mps 749 mmHg 82%
16:00 +11°C° 0.2 mm 6 mps 749 mmHg 80%
17:00 +10°C° 0 mm 6 mps 749 mmHg 82%
18:00 +9°C° 0 mm 5 mps 749 mmHg 84%
19:00 +10°C° 0 mm 4 mps 749 mmHg 85%
20:00 +8°C° 0 mm 4 mps 750 mmHg 86%
21:00 +9°C° 0 mm 3 mps 750 mmHg 86%
22:00 +8°C° 0 mm 3 mps 750 mmHg 87%
23:00 +8°C° 0 mm 3 mps 750 mmHg 85%

20 May, Thursday

Time Temperature Precipitation Wind Pressure Humidity
00:00 +8°C° 0 mm 3 mps 750 mmHg 84%
01:00 +8°C° 0 mm 3 mps 750 mmHg 83%
02:00 +8°C° 0 mm 3 mps 750 mmHg 84%
03:00 +8°C° 0 mm 3 mps 750 mmHg 84%
04:00 +7°C° 0 mm 3 mps 751 mmHg 85%
05:00 +8°C° 0 mm 3 mps 751 mmHg 83%
06:00 +8°C° 0 mm 4 mps 751 mmHg 82%
07:00 +10°C° 0 mm 4 mps 751 mmHg 80%
08:00 +11°C° 0.1 mm 4 mps 751 mmHg 77%
09:00 +12°C° 0.1 mm 5 mps 751 mmHg 74%
10:00 +13°C° 0.1 mm 5 mps 751 mmHg 71%
11:00 +13°C° 0.5 mm 5 mps 751 mmHg 74%
12:00 +13°C° 0.5 mm 5 mps 751 mmHg 77%
13:00 +13°C° 0.5 mm 5 mps 751 mmHg 81%
14:00 +13°C° 0.4 mm 5 mps 751 mmHg 81%
15:00 +13°C° 0.4 mm 5 mps 751 mmHg 81%
16:00 +13°C° 0.4 mm 6 mps 752 mmHg 81%
17:00 +12°C° 0.2 mm 5 mps 752 mmHg 81%
18:00 +10°C° 0.2 mm 5 mps 752 mmHg 82%
19:00 +10°C° 0.2 mm 5 mps 752 mmHg 82%
20:00 +8°C° 0 mm 4 mps 752 mmHg 85%
21:00 +7°C° 0 mm 4 mps 753 mmHg 89%
22:00 +7°C° 0 mm 3 mps 753 mmHg 92%
23:00 +5°C° 0 mm 3 mps 753 mmHg 92%

21 May, Friday

Time Temperature Precipitation Wind Pressure Humidity
00:00 +5°C° 0 mm 3 mps 753 mmHg 92%
01:00 +4°C° 0 mm 3 mps 754 mmHg 92%
02:00 +4°C° 0 mm 3 mps 754 mmHg 92%
03:00 +4°C° 0 mm 3 mps 754 mmHg 93%
04:00 +3°C° 0 mm 3 mps 753 mmHg 94%
05:00 +5°C° 0 mm 3 mps 753 mmHg 90%
06:00 +6°C° 0 mm 4 mps 753 mmHg 87%
07:00 +8°C° 0 mm 4 mps 753 mmHg 83%
08:00 +10°C° 0.1 mm 4 mps 753 mmHg 77%
09:00 +12°C° 0.1 mm 4 mps 753 mmHg 71%
10:00 +13°C° 0.1 mm 5 mps 753 mmHg 65%
11:00 +13°C° 0.1 mm 4 mps 752 mmHg 65%
12:00 +14°C° 0.1 mm 3 mps 752 mmHg 64%
13:00 +15°C° 0.1 mm 2 mps 752 mmHg 64%
14:00 +15°C° 0.1 mm 2 mps 751 mmHg 65%
15:00 +16°C° 0.1 mm 2 mps 751 mmHg 65%
16:00 +16°C° 0.1 mm 2 mps 750 mmHg 66%
17:00 +15°C° 0.1 mm 2 mps 750 mmHg 69%
18:00 +14°C° 0.1 mm 2 mps 749 mmHg 73%
19:00 +13°C° 0.1 mm 2 mps 749 mmHg 76%
20:00 +13°C° 0 mm 2 mps 749 mmHg 77%
21:00 +12°C° 0 mm 1 mps 749 mmHg 79%
22:00 +12°C° 0 mm 1 mps 749 mmHg 80%
23:00 +12°C° 0 mm 2 mps 748 mmHg 79%

22 May, Saturday

Time Temperature Precipitation Wind Pressure Humidity
00:00 +12°C° 0 mm 2 mps 748 mmHg 79%
01:00 +10°C° 0 mm 3 mps 747 mmHg 78%
02:00 +10°C° 0 mm 3 mps 747 mmHg 79%
03:00 +9°C° 0 mm 3 mps 746 mmHg 80%
04:00 +8°C° 0 mm 3 mps 746 mmHg 82%
05:00 +10°C° 0 mm 3 mps 746 mmHg 79%
06:00 +11°C° 0 mm 4 mps 746 mmHg 77%
07:00 +13°C° 0 mm 4 mps 746 mmHg 75%
08:00 +14°C° 0 mm 5 mps 746 mmHg 73%
09:00 +15°C° 0 mm 5 mps 746 mmHg 71%
10:00 +16°C° 0 mm 5 mps 746 mmHg 69%
11:00 +16°C° 0.1 mm 5 mps 746 mmHg 69%
12:00 +16°C° 0.1 mm 5 mps 746 mmHg 70%
13:00 +16°C° 0.1 mm 5 mps 747 mmHg 71%
14:00 +15°C° 0.5 mm 5 mps 747 mmHg 76%
15:00 +14°C° 0.5 mm 4 mps 747 mmHg 81%
16:00 +12°C° 0.5 mm 4 mps 747 mmHg 86%
17:00 +12°C° 0 mm 3 mps 747 mmHg 85%
18:00 +13°C° 0 mm 2 mps 747 mmHg 84%
19:00 +13°C° 0 mm 1 mps 747 mmHg 84%
20:00 +12°C° 0 mm 2 mps 747 mmHg 83%
21:00 +10°C° 0 mm 2 mps 747 mmHg 83%
22:00 +9°C° 0 mm 2 mps 747 mmHg 83%
23:00 +9°C° 0 mm 2 mps 747 mmHg 82%
Show more

We Need Your Consent

Meteoprog and our Service Providers may store and access personal data such as cookies, device identifiers or other similar technologies on your device and process such data to personalise content and ads, as well as provide social media features and to analyse the traffic.

  • Store and/or access information on your device

    Cookies, device identifiers or other information can be stored or accessed on your device for the purposes indicated above.

  • Personalised ads and content, ad and content measurement, audience insights, and products development

    Ads and content can be personalised based on a profile. More data can be added to better personalise ads and content. Ad and content performance can be measured. Insights about the audience who saw the ads and content can be derived. Such data can be used to develop or improve user’s experience, systems and software.

By clicking ‘I Agree’ you will allow the use of indicated cookies, device identifiers, web beacons or other similar technologies. Your settings can be changed in the browser on your device.

For certain purposes, legitimate interests may be relied on, rather than consent. You can read more about this in our Privacy and Cookie Policy.